Weather History for Durango, Mexico

Change the Weather History Date:

Thursday, February 14, 2013

  Actual Average Record
Temperature  
Mean Temperature 54 °F -  
Max Temperature 73 °F 73 °F 85 °F (2014)
Min Temperature 34 °F 38 °F 30 °F (1997)
Degree Days  
Heating Degree Days 12    
Growing Degree Days 4 (Base 50)    
Moisture  
Dew Point 13 °F    
Average Humidity 25    
Maximum Humidity 64    
Minimum Humidity 5    
Precipitation  
Precipitation 0.00 in - - ()
Sea Level Pressure  
Sea Level Pressure 30.07 in    
Wind  
Wind Speed 3 mph ()    
Max Wind Speed 13 mph    
Max Gust Speed -    
Visibility 12.5 miles    
Events      
Averages and records for this station are not official NWS values.
T = Trace of Precipitation, MM = Missing Value Source: Averaged Metar Reports

Daily Weather History Graph

Daily Weather History Graph

Search for Another Location

Airport:

Trip Planner

Search our weather history database for the weather conditions in past years. The results will help you decide how hot, cold, wet, or windy it might be!

Date:

Astronomy

Feb. 14, 2013 Rise Set
Actual Time 7:31 AM CST 6:52 PM CST
Civil Twilight 7:08 AM CST 7:16 PM CST
Nautical Twilight 6:42 AM CST 7:42 PM CST
Astronomical Twilight 6:15 AM CST 8:09 PM CST
Moon 10:12 AM CST (2/14) 11:17 PM CST (2/14)
Length of Visible Light 12h 07m
Length of Day
11h 20m
Waxing Crescent, 22% of the Moon is Illuminated
Feb 14
Waxing Crescent
Feb 17
First Quarter
Feb 25
Full
Mar 4
Last Quarter
Mar 11
New

Hourly Weather History & Observations

Time (CST) Temp. Windchill Dew Point Humidity Pressure Visibility Wind Dir Wind Speed Gust Speed Precip Events Conditions
5:53 AM 28.4 °F 24.6 °F 15.8 °F 59% 30.03 in 10.0 mi South 3.5 mph - N/A   Clear
5:58 AM 36 °F - 26 °F 56% 29.98 in 6 mi Calm Calm - -  
6:44 AM 28.4 °F - 17.6 °F 64% 30.18 in 10.0 mi South 2.3 mph - N/A   Clear
7:43 AM 24.8 °F 19.1 °F 14.0 °F 64% 30.21 in 14.0 mi NNE 4.6 mph - N/A   Clear
8:45 AM 37.4 °F - 17.6 °F 45% 30.12 in 14.0 mi Calm Calm - N/A   Partly Cloudy
8:50 AM 41 °F - 24 °F 38% 30.12 in 31 mi Calm Calm - -   Clear
9:48 AM 44.6 °F - 19.4 °F 37% 30.25 in 14.0 mi Calm Calm - N/A   Clear
10:41 AM 51.8 °F - 15.8 °F 24% 30.25 in 14.0 mi ESE 2.3 mph - N/A   Clear
11:40 AM 57 °F - 28 °F 22% 30.13 in 19 mi ESE 2.2 mph - -   Clear
11:43 AM 55.4 °F - 17.6 °F 23% 30.01 in 14.0 mi SW 6.9 mph - N/A   Clear
12:47 PM 59.0 °F - 24.8 °F 27% 30.18 in 14.0 mi South 4.6 mph - N/A   Clear
1:43 PM 62.6 °F - 10.4 °F 13% 30.15 in 14.0 mi SSE 3.5 mph - N/A   Clear
2:45 PM 68 °F - 19 °F 7% 29.94 in 25 mi SSE 4.5 mph - -  
2:45 PM 64.4 °F - 6.8 °F 10% 29.88 in 14.0 mi East 5.8 mph - N/A   Clear
3:51 PM 68.0 °F - 3.2 °F 8% 30.06 in 14.0 mi ENE 5.8 mph - N/A   Clear
4:48 PM 69.8 °F - -0.4 °F 6% 30.06 in 14.0 mi Calm Calm - N/A   Clear
5:45 PM 71 °F - 15 °F 5% 29.79 in 19 mi ESE 2.2 mph - -   Clear
5:46 PM 69.8 °F - -0.4 °F 6% 30.06 in 14.0 mi ESE 8.1 mph - N/A   Clear
6:41 PM 68.0 °F - 3.2 °F 8% 30.07 in 14.0 mi Calm Calm - N/A   Clear
7:43 PM 57.2 °F - 3.2 °F 11% 30.08 in 8.0 mi Calm Calm - N/A   Clear
9:42 PM 57.2 °F - 5.0 °F 12% 30.11 in 8.0 mi SW 12.7 mph - N/A   Clear
10:47 PM 50.0 °F - 6.8 °F 17% 30.15 in 8.0 mi SW 12.7 mph - N/A   Clear
11:55 PM 54 °F - 17 °F 12% 29.80 in 6 mi WSW 2.2 mph - -